TimeCDT,TemperatureF,Dew PointF,Humidity,Sea Level PressureIn,VisibilityMPH,Wind Direction,Wind SpeedMPH,Gust SpeedMPH,PrecipitationIn,Events,Conditions,WindDirDegrees,DateUTC
12:15 AM,55.4,53.6,94,30.13,10.0,North,4.6,-,N/A,,Clear,360,2012-10-08 05:15:00
12:35 AM,55.4,53.6,94,30.13,10.0,North,3.5,-,N/A,,Mostly Cloudy,350,2012-10-08 05:35:00
12:55 AM,55.6,54.0,94,30.13,10.0,Calm,Calm,-,N/A,,Mostly Cloudy,0,2012-10-08 05:55:00
1:15 AM,55.8,54.1,94,30.12,10.0,Calm,Calm,-,N/A,,Mostly Cloudy,0,2012-10-08 06:15:00
1:35 AM,55.9,54.0,93,30.13,10.0,Calm,Calm,-,N/A,,Mostly Cloudy,0,2012-10-08 06:35:00
1:55 AM,54.9,53.2,94,30.13,10.0,NNW,5.8,-,N/A,,Scattered Clouds,330,2012-10-08 06:55:00
2:15 AM,54.1,53.1,96,30.13,10.0,NW,3.5,-,N/A,,Clear,320,2012-10-08 07:15:00
2:35 AM,54.1,53.1,96,30.13,10.0,NW,3.5,-,N/A,,Clear,310,2012-10-08 07:35:00
2:55 AM,53.8,52.9,97,30.13,10.0,NW,4.6,-,N/A,,Clear,320,2012-10-08 07:55:00
3:15 AM,54.3,53.6,97,30.12,10.0,NNW,5.8,-,N/A,,Clear,330,2012-10-08 08:15:00
3:35 AM,54.0,53.6,99,30.11,10.0,NNW,5.8,-,N/A,,Clear,340,2012-10-08 08:35:00
3:55 AM,53.6,53.2,99,30.11,10.0,North,3.5,-,N/A,,Clear,360,2012-10-08 08:55:00
4:15 AM,53.4,53.1,99,30.11,10.0,North,4.6,-,N/A,,Clear,350,2012-10-08 09:15:00
4:35 AM,53.6,53.6,100,30.11,10.0,North,3.5,-,N/A,,Mostly Cloudy,360,2012-10-08 09:35:00
4:55 AM,54.5,53.8,97,30.12,10.0,NNW,6.9,-,N/A,,Overcast,340,2012-10-08 09:55:00
5:15 AM,54.5,53.2,96,30.13,10.0,North,8.1,-,N/A,,Mostly Cloudy,360,2012-10-08 10:15:00
5:35 AM,53.8,52.7,96,30.13,10.0,North,6.9,-,N/A,,Scattered Clouds,350,2012-10-08 10:35:00
5:55 AM,53.6,52.2,95,30.14,10.0,North,6.9,-,N/A,,Clear,350,2012-10-08 10:55:00
6:15 AM,54.0,52.0,93,30.14,10.0,North,9.2,-,N/A,,Scattered Clouds,360,2012-10-08 11:15:00
6:35 AM,55.4,51.8,88,30.14,10.0,North,8.1,-,N/A,,Overcast,360,2012-10-08 11:35:00
6:55 AM,55.6,51.6,87,30.15,10.0,North,10.4,-,N/A,,Overcast,360,2012-10-08 11:55:00
7:15 AM,55.9,51.4,85,30.16,10.0,North,9.2,-,N/A,,Overcast,360,2012-10-08 12:15:00
7:35 AM,56.5,49.8,78,30.15,10.0,NE,5.8,-,N/A,,Overcast,40,2012-10-08 12:35:00
7:55 AM,56.7,49.6,77,30.16,10.0,North,9.2,-,N/A,,Overcast,10,2012-10-08 12:55:00
8:15 AM,57.2,50.0,77,30.17,10.0,NNE,6.9,-,N/A,,Overcast,20,2012-10-08 13:15:00
8:35 AM,57.4,49.3,74,30.18,10.0,NNE,10.4,-,N/A,,Overcast,20,2012-10-08 13:35:00
8:55 AM,58.8,49.5,71,30.18,10.0,North,12.7,-,N/A,,Scattered Clouds,10,2012-10-08 13:55:00
9:15 AM,59.9,49.6,69,30.19,10.0,North,9.2,18.4,N/A,,Clear,10,2012-10-08 14:15:00
9:35 AM,61.2,50.7,69,30.19,10.0,North,11.5,-,N/A,,Scattered Clouds,360,2012-10-08 14:35:00
9:55 AM,62.4,51.1,66,30.20,10.0,North,11.5,-,N/A,,Mostly Cloudy,360,2012-10-08 14:55:00
10:15 AM,61.7,50.9,68,30.19,10.0,North,8.1,-,N/A,,Overcast,10,2012-10-08 15:15:00
10:35 AM,62.1,50.5,66,30.19,10.0,NNE,11.5,-,N/A,,Overcast,30,2012-10-08 15:35:00
10:55 AM,62.8,51.8,67,30.19,10.0,North,11.5,-,N/A,,Overcast,10,2012-10-08 15:55:00
11:15 AM,63.5,51.6,65,30.19,10.0,North,8.1,-,N/A,,Overcast,350,2012-10-08 16:15:00
11:35 AM,63.7,51.6,65,30.18,10.0,NNE,10.4,-,N/A,,Overcast,20,2012-10-08 16:35:00
11:55 AM,64.8,52.7,65,30.17,10.0,North,10.4,-,N/A,,Overcast,360,2012-10-08 16:55:00
12:15 PM,65.5,52.7,63,30.17,10.0,North,9.2,-,N/A,,Mostly Cloudy,360,2012-10-08 17:15:00
12:35 PM,66.7,54.0,63,30.17,10.0,North,5.8,-,N/A,,Mostly Cloudy,360,2012-10-08 17:35:00
12:55 PM,66.7,53.6,63,30.16,10.0,North,12.7,16.1,N/A,,Mostly Cloudy,360,2012-10-08 17:55:00
1:15 PM,66.6,53.6,63,30.15,10.0,North,10.4,-,N/A,,Mostly Cloudy,360,2012-10-08 18:15:00
1:35 PM,69.1,53.6,58,30.13,10.0,North,10.4,17.3,N/A,,Scattered Clouds,10,2012-10-08 18:35:00
1:55 PM,69.6,53.4,56,30.12,10.0,NNW,12.7,17.3,N/A,,Clear,340,2012-10-08 18:55:00
2:15 PM,70.2,53.4,55,30.11,10.0,North,11.5,18.4,N/A,,Clear,360,2012-10-08 19:15:00
2:35 PM,70.3,53.2,55,30.11,10.0,North,12.7,20.7,N/A,,Clear,350,2012-10-08 19:35:00
3:15 PM,70.7,52.7,53,30.11,10.0,North,10.4,-,N/A,,Clear,360,2012-10-08 20:15:00
3:35 PM,70.9,52.3,52,30.10,10.0,North,12.7,16.1,N/A,,Clear,360,2012-10-08 20:35:00
3:55 PM,70.9,52.3,52,30.10,10.0,NNE,9.2,-,N/A,,Clear,20,2012-10-08 20:55:00
4:15 PM,70.7,52.2,52,30.09,10.0,North,9.2,-,N/A,,Clear,350,2012-10-08 21:15:00
4:35 PM,70.3,52.7,53,30.09,10.0,NNE,8.1,-,N/A,,Clear,20,2012-10-08 21:35:00
4:55 PM,70.2,52.9,54,30.09,10.0,NNE,6.9,-,N/A,,Clear,20,2012-10-08 21:55:00
5:15 PM,70.0,53.2,55,30.09,10.0,NE,9.2,-,N/A,,Clear,40,2012-10-08 22:15:00
5:35 PM,69.8,53.8,57,30.09,10.0,NNE,6.9,-,N/A,,Clear,30,2012-10-08 22:35:00
5:55 PM,68.9,53.4,58,30.09,10.0,NNE,5.8,-,N/A,,Clear,20,2012-10-08 22:55:00
6:15 PM,67.8,53.4,60,30.10,10.0,NNE,5.8,-,N/A,,Clear,30,2012-10-08 23:15:00
6:35 PM,66.0,53.8,65,30.11,10.0,NE,4.6,-,N/A,,Clear,40,2012-10-08 23:35:00
6:55 PM,64.0,54.1,70,30.11,10.0,NNE,4.6,-,N/A,,Clear,30,2012-10-08 23:55:00
7:35 PM,62.1,54.5,76,30.11,10.0,NNE,4.6,-,N/A,,Clear,30,2012-10-09 00:35:00
7:55 PM,61.3,54.5,78,30.11,10.0,Calm,Calm,-,N/A,,Clear,0,2012-10-09 00:55:00
8:15 PM,61.0,54.7,80,30.11,10.0,NNE,3.5,-,N/A,,Clear,20,2012-10-09 01:15:00
9:15 PM,59.4,54.9,85,30.13,10.0,Calm,Calm,-,N/A,,Clear,0,2012-10-09 02:15:00
9:35 PM,59.0,54.3,84,30.13,10.0,NNE,3.5,-,N/A,,Clear,20,2012-10-09 02:35:00
9:55 PM,58.1,54.5,88,30.13,10.0,North,3.5,-,N/A,,Clear,10,2012-10-09 02:55:00
10:15 PM,57.4,54.0,88,30.13,10.0,Calm,Calm,-,N/A,,Clear,0,2012-10-09 03:15:00
10:35 PM,57.7,54.0,87,30.14,10.0,North,3.5,-,N/A,,Clear,10,2012-10-09 03:35:00
10:55 PM,57.7,54.0,87,30.13,10.0,North,3.5,-,N/A,,Clear,10,2012-10-09 03:55:00
11:15 PM,57.2,53.8,88,30.13,10.0,North,3.5,-,N/A,,Clear,10,2012-10-09 04:15:00
11:35 PM,56.8,53.4,88,30.13,10.0,NNE,3.5,-,N/A,,Clear,30,2012-10-09 04:35:00
11:55 PM,56.3,53.6,91,30.13,10.0,NNE,3.5,-,N/A,,Clear,30,2012-10-09 04:55:00